CW9676 Weather Reports


time (UTC)temp
F
wind
direction
speed
knots
gust
knots
rain 1hr
in
rain 24hr
in
rain mn
in
humidity
%
barometer
mb
20260507015113 60 146 6.1 11.3 0.00 0.00 0.00 19 1011.2
20260507014048 61 179 7.0 12.2 0.00 0.00 0.00 19 1011.0
20260507013046 62 176 7.8 14.8 0.00 0.00 0.00 18 1010.9
20260507012041 63 195 7.8 14.8 0.00 0.00 0.00 18 1010.7
20260507005948 64 177 7.0 13.0 0.00 0.00 0.00 17 1010.6
20260507004930 65 140 6.1 14.8 0.00 0.00 0.00 17 1010.5
20260507003951 65 160 7.8 14.8 0.00 0.00 0.00 18 1010.4
20260507002939 65 163 7.8 14.8 0.00 0.00 0.00 19 1010.2
20260507001916 66 163 7.8 14.8 0.00 0.00 0.00 18 1010.2
20260507000903 66 148 7.8 14.8 0.00 0.00 0.00 18 1010.0
20260506235902 66 156 7.0 16.5 0.00 0.00 0.00 18 1010.0
20260506234902 66 142 7.8 16.5 0.00 0.00 0.00 18 1010.0
20260506232810 66 182 7.8 16.5 0.00 0.00 0.00 17 1009.9
20260506231811 66 192 9.6 14.8 0.00 0.00 0.00 18 1009.8
20260506230740 66 150 8.7 17.4 0.00 0.00 0.00 17 1009.8
20260506225707 67 180 7.8 17.4 0.00 0.00 0.00 17 1009.9
20260506224647 67 234 7.8 15.6 0.00 0.00 0.00 17 1009.9
20260506223652 68 174 7.8 20.0 0.00 0.00 0.00 17 1010.0
20260506222649 66 237 11.3 20.0 0.00 0.00 0.00 17 1010.0
20260506220457 66 156 9.6 18.2 0.00 0.00 0.00 16 1010.1
20260506215445 66 169 10.4 18.2 0.00 0.00 0.00 17 1010.1
20260506214458 67 194 7.0 15.6 0.00 0.00 0.00 17 1010.1
20260506213518 66 195 7.8 15.6 0.00 0.00 0.00 17 1010.3
20260506212540 65 180 7.8 15.6 0.00 0.00 0.00 20 1010.3
20260506210349 66 159 7.0 18.2 0.00 0.00 0.00 20 1010.9
20260506204309 65 164 7.8 15.6 0.00 0.00 0.00 22 1010.8
20260506203311 65 203 8.7 15.6 0.00 0.00 0.00 22 1010.9
20260506202247 65 178 7.8 19.1 0.00 0.00 0.00 23 1011.0
20260506201308 65 127 8.7 19.1 0.00 0.00 0.00 23 1010.9
20260506195152 63 148 8.7 18.2 0.00 0.00 0.00 24 1011.0
20260506194121 64 173 7.8 18.2 0.00 0.00 0.00 24 1011.0
20260506192030 63 4 7.8 15.6 0.00 0.00 0.00 26 1011.2
20260506184838 63 225 7.0 13.9 0.00 0.00 0.00 29 1011.4
20260506183829 62 238 6.1 14.8 0.00 0.00 0.00 29 1011.4
20260506182828 61 164 7.0 14.8 0.00 0.00 0.00 32 1011.6
20260506181844 60 150 6.1 12.2 0.00 0.00 0.00 30 1011.8
20260506180838 60 163 7.0 14.8 0.00 0.00 0.00 30 1012.0
20260506175825 59 165 7.8 14.8 0.00 0.00 0.00 31 1012.1
20260506173717 59 213 7.0 13.0 0.00 0.00 0.00 29 1012.2
20260506172702 57 227 7.0 13.0 0.00 0.00 0.00 29 1012.2
20260506171715 57 183 7.0 13.0 0.00 0.00 0.00 33 1012.1
20260506170731 57 200 6.1 12.2 0.00 0.00 0.00 32 1012.0
20260506165700 56 238 7.0 15.6 0.00 0.00 0.00 35 1012.0
20260506164717 56 254 7.0 15.6 0.00 0.00 0.00 35 1012.0
20260506162624 54 194 7.0 13.0 0.00 0.00 0.00 40 1011.8
20260506161610 55 213 5.2 13.9 0.00 0.00 0.00 41 1011.8
20260506160606 53 168 8.7 15.6 0.00 0.00 0.00 42 1011.7
20260506155554 53 213 9.6 16.5 0.00 0.00 0.00 44 1011.6
20260506154540 53 233 7.8 16.5 0.00 0.00 0.00 43 1011.6
20260506153539 53 225 7.8 15.6 0.00 0.00 0.00 44 1011.7
20260506152542 52 177 7.8 17.4 0.00 0.00 0.00 45 1011.5
20260506151511 52 192 7.8 15.6 0.00 0.01 0.00 45 1011.5
20260506150437 51 202 7.8 14.8 0.00 0.01 0.00 48 1011.5
20260506145445 51 223 8.7 15.6 0.00 0.01 0.00 49 1011.4
20260506144429 50 160 8.7 17.4 0.00 0.01 0.00 49 1011.3
20260506143433 50 233 9.6 17.4 0.00 0.01 0.00 52 1011.4
20260506142410 49 163 8.7 16.5 0.00 0.01 0.00 53 1011.3
20260506141340 49 222 7.8 16.5 0.00 0.01 0.00 55 1011.1
20260506140330 49 225 9.6 14.8 0.00 0.01 0.00 57 1011.2
20260506135346 48 237 7.8 14.8 0.00 0.01 0.00 58 1011.1
20260506134350 47 248 6.1 14.8 0.00 0.01 0.00 59 1011.1
20260506131042 45 199 4.3 8.7 0.00 0.01 0.00 67 1011.0
20260506130017 44 213 3.5 7.8 0.00 0.01 0.00 68 1010.9
20260506125025 44 4 3.5 9.6 0.00 0.01 0.00 68 1010.7
20260506124018 44 240 5.2 9.6 0.00 0.01 0.00 68 1010.6
20260506123026 44 246 4.3 8.7 0.00 0.02 0.00 69 1010.4
20260506122034 44 239 5.2 11.3 0.00 0.02 0.00 68 1010.3
20260506121041 44 229 4.3 11.3 0.00 0.02 0.00 69 1010.1
20260506120038 44 210 4.3 7.0 0.00 0.03 0.00 68 1010.0
20260506115025 45 230 5.2 12.2 0.00 0.03 0.00 67 1009.9
20260506112856 45 219 6.1 16.5 0.00 0.03 0.00 66 1009.7
20260506111832 45 233 7.8 16.5 0.00 0.03 0.00 66 1009.6
20260506110832 46 263 7.8 13.9 0.00 0.03 0.00 66 1009.5
20260506104648 46 218 7.8 14.8 0.00 0.03 0.00 65 1009.5
20260506103633 46 273 8.7 14.8 0.00 0.03 0.00 65 1009.4
20260506102611 46 222 8.7 13.9 0.00 0.03 0.00 65 1009.4
20260506101624 46 225 7.8 16.5 0.00 0.03 0.00 65 1009.2
20260506100649 46 216 8.7 16.5 0.00 0.03 0.00 64 1009.2
20260506095646 46 238 9.6 15.6 0.00 0.03 0.00 64 1009.2
20260506094613 47 186 7.8 13.9 0.00 0.03 0.00 64 1009.2
20260506093625 47 221 7.8 16.5 0.00 0.03 0.00 64 1009.1
20260506092641 47 215 8.7 16.5 0.00 0.03 0.00 63 1009.2
20260506091652 47 243 8.7 14.8 0.00 0.03 0.00 63 1009.1
20260506090640 47 242 7.8 13.9 0.00 0.03 0.00 63 1009.1
20260506085607 47 246 7.0 15.6 0.00 0.03 0.00 62 1009.0
20260506084604 48 231 7.0 15.6 0.00 0.03 0.00 61 1009.0
20260506083559 48 182 5.2 11.3 0.00 0.03 0.00 61 1009.1
20260506082530 48 237 6.1 13.0 0.00 0.03 0.00 62 1009.1
20260506081536 47 250 7.0 13.0 0.00 0.03 0.00 63 1009.1
20260506080534 47 4 5.2 10.4 0.00 0.03 0.00 63 1009.3
20260506073424 48 220 6.1 11.3 0.00 0.03 0.00 61 1009.4
20260506071218 48 215 6.1 12.2 0.00 0.03 0.00 60 1009.2
20260506070215 48 226 6.1 12.2 0.00 0.03 0.00 60 1009.2
20260506061018 50 246 7.0 13.0 0.00 0.03 0.00 57 1008.6
20260506050924 51 234 4.3 12.2 0.00 0.03 0.03 53 1008.3
20260506044814 52 222 7.0 13.9 0.00 0.03 0.03 52 1008.3
20260506043832 53 230 7.8 13.0 0.00 0.03 0.03 52 1008.1
20260506041651 53 220 6.1 12.2 0.00 0.03 0.03 53 1008.0
20260506040636 54 233 6.1 12.2 0.00 0.03 0.03 52 1007.8
20260506035614 54 173 7.0 15.6 0.00 0.03 0.03 51 1007.5
20260506033452 54 212 7.8 13.9 0.00 0.03 0.03 50 1007.1
20260506032436 55 184 7.0 21.7 0.00 0.03 0.03 49 1007.0
20260506030257 56 184 8.7 20.0 0.00 0.03 0.03 47 1006.6
20260506025254 56 4 7.8 16.5 0.00 0.03 0.03 46 1006.2
20260506024242 56 202 8.7 16.5 0.00 0.03 0.03 45 1006.1
20260506023225 56 218 7.8 13.9 0.00 0.03 0.03 44 1006.0
20260506022206 57 186 9.6 18.2 0.00 0.03 0.03 44 1005.8
20260506021223 58 212 9.6 18.2 0.00 0.03 0.03 42 1005.6
20260506020218 58 168 10.4 16.5 0.00 0.03 0.03 40 1005.5